Location: Vancouver
(49.2500°N, 123.1330°W)
Time: 00:24:52
(UTC-07:00)

ISS - All Passes

Search period start: 26 September 2017 00:00
Search period end: 06 October 2017 00:00
Orbit: 401 x 407 km, 51.6° (Epoch: 26 September)

Date Brightness Start Highest point End Pass type
(mag) Time Alt. Az. Time Alt. Az. Time Alt. Az.
26 Sep - 00:48:44 10° WNW 00:52:02 68° NNE 00:55:19 10° E night (unlit)
26 Sep - 02:25:20 10° W 02:28:24 36° SSW 02:31:28 10° SE night (unlit)
26 Sep - 20:43:29 10° SW 20:46:32 36° SSE 20:49:36 10° E visible
26 Sep - 22:19:39 10° W 22:22:55 68° NNW 22:26:11 10° ENE visible
26 Sep - 23:56:22 10° WNW 23:59:37 57° N 00:02:52 10° E night (unlit)
27 Sep - 01:32:54 10° WNW 01:36:08 57° SSW 01:39:22 10° SE night (unlit)
27 Sep - 03:10:41 10° WSW 03:12:03 12° SW 03:13:25 10° SSW night (unlit)
27 Sep - 19:51:40 10° SSW 19:54:19 23° SE 19:57:00 10° E visible
27 Sep - 21:27:14 10° WSW 21:30:31 87° NNW 21:33:48 10° ENE visible
27 Sep - 23:03:56 10° WNW 23:07:10 53° N 23:10:25 10° E night (unlit)
28 Sep - 00:40:30 10° WNW 00:43:48 83° SSW 00:47:06 10° ESE night (unlit)
28 Sep - 02:17:27 10° W 02:19:55 20° SW 02:22:23 10° S night (unlit)
28 Sep - 19:00:18 10° S 19:02:10 14° SE 19:04:02 10° ESE daylight
28 Sep - 20:34:54 10° WSW 20:38:09 66° SSE 20:41:25 10° ENE visible
28 Sep - 22:11:28 10° W 22:14:42 55° N 22:17:57 10° ENE visible
28 Sep - 23:48:06 10° WNW 23:51:24 74° NNE 23:54:42 10° E night (unlit)
29 Sep - 01:24:45 10° W 01:27:43 31° SW 01:30:40 10° SSE night (unlit)
29 Sep - 19:42:42 10° SW 19:45:49 42° SSE 19:48:57 10° ENE visible
29 Sep - 21:18:59 10° W 21:22:14 63° NNW 21:25:31 10° ENE visible
29 Sep - 22:55:42 10° WNW 22:58:57 60° N 23:02:13 10° E visible
30 Sep - 00:32:14 10° WNW 00:35:25 49° SSW 00:38:36 10° SE night (unlit)
30 Sep - 18:50:44 10° SSW 18:53:33 27° SE 18:56:23 10° E daylight
30 Sep - 20:26:31 10° WSW 20:29:48 79° NNW 20:33:06 10° ENE visible
30 Sep - 22:03:14 10° WNW 22:06:29 54° N 22:09:43 10° E visible
30 Sep - 23:39:47 10° WNW 23:43:04 74° SSW 23:46:21 10° ESE night (unlit)
01 Oct - 01:16:56 10° W 01:19:07 17° SW 01:21:19 10° S night (unlit)
01 Oct - 17:59:07 10° S 18:01:20 17° SE 18:03:33 10° E daylight
01 Oct - 19:34:07 10° WSW 19:37:23 75° SSE 19:40:40 10° ENE visible
01 Oct - 21:10:45 10° W 21:13:59 54° N 21:17:14 10° ENE visible
01 Oct - 22:47:21 10° WNW 22:50:39 81° NNE 22:53:56 10° ESE visible
02 Oct - 00:24:04 10° W 00:26:54 26° SW 00:29:43 10° SSE night (unlit)
02 Oct - 17:08:49 10° SE 17:09:10 10° SE 17:09:30 10° SE daylight
02 Oct - 18:41:50 10° SW 18:45:00 49° SSE 18:48:12 10° ENE daylight
02 Oct - 20:18:13 10° W 20:21:28 60° N 20:24:44 10° ENE visible
02 Oct - 21:54:55 10° WNW 21:58:11 64° NNE 22:01:27 10° E visible
02 Oct - 23:31:28 10° WNW 23:34:36 42° SSW 23:37:43 10° SE night (unlit)
03 Oct - 17:49:44 10° SSW 17:52:40 31° SE 17:55:38 10° E daylight
03 Oct - 19:25:42 10° W 19:28:59 73° NNW 19:32:16 10° ENE visible
03 Oct - 21:02:26 10° WNW 21:05:40 55° N 21:08:54 10° E visible
03 Oct - 22:38:58 10° WNW 22:42:13 65° SSW 22:45:29 10° ESE visible
04 Oct - 00:16:22 10° WSW 00:18:12 14° SW 00:20:02 10° S night (unlit)
04 Oct - 16:57:56 10° S 17:00:23 20° SE 17:02:52 10° E daylight
04 Oct - 18:33:14 10° WSW 18:36:31 84° SSE 18:39:48 10° ENE daylight
04 Oct - 20:09:54 10° W 20:13:08 53° N 20:16:22 10° ENE visible
04 Oct - 21:46:29 10° WNW 21:49:46 88° N 21:53:04 10° ESE visible
04 Oct - 23:23:18 10° W 23:25:58 23° SW 23:28:37 10° SSE night (unlit)
05 Oct - 16:06:48 10° SSE 16:08:10 12° SE 16:09:33 10° ESE daylight
05 Oct - 17:40:52 10° SW 17:44:04 57° SSE 17:47:18 10° ENE daylight
05 Oct - 19:17:21 10° W 19:20:35 57° N 19:23:50 10° ENE visible
05 Oct - 20:54:01 10° WNW 20:57:17 68° NNE 21:00:34 10° E visible
05 Oct - 22:30:36 10° W 22:33:39 36° SSW 22:36:42 10° SE visible
